TimeMST,TemperatureF,Dew PointF,Humidity,Sea Level PressureIn,VisibilityMPH,Wind Direction,Wind SpeedMPH,Gust SpeedMPH,PrecipitationIn,Events,Conditions,WindDirDegrees,DateUTC
12:56 AM,37.9,21.0,51,29.98,-9999.0,NW,10.4,-,N/A,,Unknown,310,2012-11-19 07:56:00
1:56 AM,42.1,21.0,43,29.98,-9999.0,NW,10.4,-,N/A,,Unknown,310,2012-11-19 08:56:00
2:56 AM,42.1,19.9,41,29.98,-9999.0,NW,16.1,-,N/A,,Unknown,310,2012-11-19 09:56:00
3:56 AM,42.1,21.0,43,30.00,-9999.0,NW,15.0,-,N/A,,Unknown,310,2012-11-19 10:56:00
4:56 AM,42.1,21.0,43,30.05,-9999.0,NW,13.8,-,N/A,,Unknown,320,2012-11-19 11:56:00
5:56 AM,42.1,21.0,43,30.10,-9999.0,NW,13.8,-,N/A,,Unknown,320,2012-11-19 12:56:00
6:56 AM,43.0,21.9,43,30.13,-9999.0,NW,12.7,-,N/A,,Unknown,320,2012-11-19 13:56:00
7:56 AM,48.9,23.0,36,30.13,-9999.0,NW,15.0,-,N/A,,Unknown,320,2012-11-19 14:56:00
8:56 AM,57.0,21.0,25,30.13,-9999.0,NW,17.3,25.3,N/A,,Unknown,320,2012-11-19 15:56:00
9:56 AM,60.1,21.0,22,30.15,-9999.0,North,20.7,-,N/A,,Unknown,360,2012-11-19 16:56:00
10:56 AM,63.0,24.1,23,30.13,-9999.0,North,16.1,-,N/A,,Unknown,360,2012-11-19 17:56:00
11:56 AM,64.0,23.0,21,30.12,-9999.0,North,11.5,-,N/A,,Unknown,360,2012-11-19 18:56:00
12:56 PM,66.0,23.0,20,30.09,-9999.0,NNE,10.4,-,N/A,,Unknown,20,2012-11-19 19:56:00
1:56 PM,66.0,23.0,20,30.09,-9999.0,NE,6.9,-,N/A,,Unknown,50,2012-11-19 20:56:00
2:56 PM,64.9,24.1,21,30.09,-9999.0,NE,6.9,-,N/A,,Unknown,50,2012-11-19 21:56:00
3:56 PM,62.1,24.1,23,30.12,-9999.0,ENE,4.6,-,N/A,,Unknown,70,2012-11-19 22:56:00
4:56 PM,53.1,24.1,32,30.14,-9999.0,Calm,Calm,-,N/A,,Unknown,0,2012-11-19 23:56:00
5:56 PM,46.0,21.9,39,30.19,-9999.0,Calm,Calm,-,N/A,,Unknown,0,2012-11-20 00:56:00
6:56 PM,39.9,19.9,45,30.20,-9999.0,Calm,Calm,-,N/A,,Unknown,0,2012-11-20 01:56:00
7:56 PM,39.0,21.0,49,30.18,-9999.0,SW,5.8,-,N/A,,Unknown,230,2012-11-20 02:56:00
8:56 PM,39.0,21.9,50,30.17,-9999.0,West,3.5,-,N/A,,Unknown,260,2012-11-20 03:56:00
9:56 PM,37.9,21.9,53,30.17,-9999.0,West,3.5,-,N/A,,Unknown,270,2012-11-20 04:56:00
10:56 PM,36.0,21.9,57,30.17,-9999.0,West,3.5,-,N/A,,Unknown,280,2012-11-20 05:56:00
11:56 PM,35.1,21.0,57,30.17,-9999.0,West,8.1,-,N/A,,Unknown,270,2012-11-20 06:56:00